Theta_e
287 287 287 287 287 287 287 287 287 287 287 287 287 287 287 286 286 285 285 284 284 283 282 282 282 281 281 281 282 282 282 282 282 282 282 282 282 281 281 281 280 280 280 279 279 278 278 277 278 278 278 278 278 278 279 279 279 279 280 280 280 281 281 282 282 282 283 283 283 283 283 283 283 283 284 284 284 284 284 285 285 285 284 284 285
287 287 287 287 287 287 287 287 287 287 287 287 287 287 286 285 285 284 284 284 283 282 282 282 281 281 281 281 281 281 281 281 281 281 281 281 281 280 280 280 279 279 279 278 278 277 277 277 277 277 277 276 277 277 277 278 278 278 279 279 279 280 280 280 281 281 281 282 282 282 282 282 282 283 283 283 283 283 284 284 284 284 284 284 284
287 287 287 286 286 287 287 287 287 287 287 287 286 286 285 285 284 284 283 283 283 282 282 281 281 281 281 281 281 281 281 280 280 280 280 280 280 279 279 279 278 278 277 277 277 276 276 276 276 276 276 276 276 276 276 277 277 277 277 278 278 278 279 279 279 280 280 280 280 281 281 281 281 282 282 282 282 283 283 283 284 284 284 284 284
286 286 286 286 286 287 287 287 287 287 286 286 286 285 285 284 284 284 283 283 283 282 282 281 281 281 281 280 280 280 280 280 280 280 279 279 279 278 278 278 278 277 276 276 276 276 275 275 275 275 275 275 275 276 276 276 276 276 276 277 277 277 278 278 278 279 279 279 280 280 280 280 280 281 281 281 282 282 282 283 283 283 284 284 284
286 286 286 286 286 286 287 287 286 286 286 286 285 285 284 284 284 284 284 283 282 282 281 281 281 280 280 280 280 280 280 279 279 279 279 279 278 278 278 278 277 276 276 275 275 275 275 275 275 275 275 275 275 275 275 275 275 275 276 276 276 276 277 277 277 278 278 278 279 279 279 279 279 280 280 280 280 281 281 281 282 282 283 283 284
285 285 285 286 286 286 286 286 286 286 285 285 285 284 284 284 284 284 283 282 282 281 281 280 280 280 280 280 279 279 279 279 279 279 278 278 278 278 278 277 276 275 275 275 275 275 275 274 274 274 274 274 274 275 275 275 275 275 275 275 275 276 276 276 276 277 277 277 278 278 278 278 279 279 279 280 280 280 281 281 281 282 282 283 284
285 285 285 286 286 286 286 286 286 286 285 285 284 284 284 284 284 284 283 282 281 280 280 280 280 279 279 279 279 279 279 278 278 278 278 277 277 277 276 275 275 275 274 274 274 274 274 274 274 274 274 274 274 274 274 274 274 274 274 274 274 275 275 275 276 276 276 276 277 277 277 277 278 278 278 279 279 279 280 281 281 281 281 282 282
285 285 285 285 286 286 286 286 286 285 285 285 284 284 284 284 284 283 282 281 281 280 280 279 279 279 279 279 279 278 278 278 278 277 277 277 276 275 274 274 274 274 274 274 274 274 274 274 274 273 273 273 273 273 273 273 273 273 273 273 274 274 274 274 274 274 274 275 275 275 276 276 276 277 277 277 278 278 279 279 279 279 279 280 281
285 285 285 285 285 286 286 286 285 285 285 284 284 284 284 284 284 283 282 281 280 280 279 279 279 279 278 278 278 278 278 277 277 276 276 276 275 274 273 273 273 273 274 274 274 274 274 273 273 273 272 272 272 272 272 272 272 273 273 273 273 273 273 273 273 273 274 274 274 275 275 275 275 276 276 276 276 277 277 277 277 277 278 279 279
285 285 285 285 285 285 286 285 285 285 285 284 284 284 284 284 283 283 282 281 280 279 279 279 278 278 278 278 277 278 277 277 277 276 275 275 274 273 273 273 273 273 273 273 274 274 273 273 272 272 271 271 271 271 271 272 272 272 272 273 273 273 273 273 273 273 273 273 274 274 274 274 275 275 275 275 275 276 276 276 276 277 277 277 277
285 285 285 285 285 285 285 285 285 285 284 284 284 284 284 284 284 283 282 281 280 279 278 278 278 278 277 277 277 277 277 276 276 276 275 275 274 272 273 273 273 273 273 273 274 273 272 272 271 271 271 271 271 271 271 271 272 272 272 272 272 272 273 273 273 273 273 273 273 274 274 274 274 274 274 275 275 275 275 275 276 276 276 276 277
285 285 285 285 285 285 285 285 285 285 284 284 284 284 284 284 283 283 282 280 279 279 278 278 278 277 277 277 277 277 276 276 276 275 275 275 274 272 272 273 273 273 273 273 273 272 271 271 271 271 271 270 271 271 271 271 271 271 271 272 272 272 272 273 273 273 273 273 274 274 274 274 274 274 274 274 275 275 275 275 275 276 276 276 277
285 285 285 285 285 285 285 285 285 285 284 284 284 284 284 284 283 283 281 280 279 278 278 277 277 277 277 276 276 276 276 275 275 275 275 275 274 272 272 273 273 272 273 272 271 271 270 270 270 270 270 270 270 271 271 271 271 271 271 271 271 272 272 273 273 274 274 274 274 274 274 274 275 274 274 274 275 275 275 275 276 276 276 277 277
286 286 286 285 285 285 285 285 285 285 284 284 284 283 283 283 283 282 281 279 278 278 277 277 277 277 276 276 276 276 276 275 275 275 274 274 273 272 272 273 272 271 271 271 271 271 270 270 270 270 271 271 271 271 271 271 271 271 272 272 272 272 273 273 273 274 274 274 274 274 274 275 275 275 275 275 275 275 275 275 276 276 277 277 277
287 287 286 286 286 286 286 285 285 284 284 284 283 283 283 282 282 281 280 279 278 277 277 277 276 276 276 276 275 275 275 275 274 274 274 273 273 271 271 271 271 270 271 270 271 270 270 270 270 270 271 271 271 271 272 272 272 272 272 273 273 273 273 274 274 274 274 274 274 275 275 275 275 275 275 275 275 275 275 276 276 277 277 277 277
287 287 286 286 286 286 286 285 285 284 284 283 283 283 282 281 281 280 279 278 278 277 277 276 276 276 276 275 275 275 275 274 274 274 273 273 272 271 271 270 270 270 270 270 270 270 270 271 271 271 271 271 272 272 273 273 273 273 274 274 274 274 274 274 275 275 275 275 275 276 276 276 276 276 276 276 276 276 276 277 277 277 277 277 277
287 287 286 286 286 286 286 285 284 284 283 283 283 282 281 280 280 279 279 278 277 277 276 276 276 275 275 275 274 275 275 274 274 274 273 273 272 271 270 270 270 270 270 270 271 271 271 271 271 272 272 272 272 273 274 274 275 275 275 275 275 275 275 275 275 276 276 276 276 277 277 277 277 277 277 277 277 277 277 277 277 277 277 277 277
287 286 286 286 286 286 286 285 284 284 283 283 282 281 280 280 279 279 279 278 277 277 276 276 276 275 275 275 274 274 274 274 274 273 273 273 272 270 270 270 271 271 271 271 271 271 272 272 272 272 273 273 273 274 275 275 276 276 276 276 276 276 276 276 276 276 276 276 276 277 277 277 277 277 277 277 277 277 277 277 277 277 277 277 277
287 287 286 286 286 286 286 285 284 284 283 282 281 280 280 279 279 279 279 278 277 276 276 276 275 275 275 274 274 274 274 274 273 273 273 273 271 270 270 271 271 271 271 271 272 272 273 273 273 273 273 274 274 275 276 276 276 276 276 276 276 277 277 277 276 276 276 276 276 277 277 277 276 276 276 276 276 276 277 277 277 276 276 276 276
287 287 286 286 286 286 285 284 284 283 283 282 280 280 279 279 279 279 278 278 277 276 276 275 275 274 274 274 274 273 273 273 273 273 273 272 271 270 271 271 271 272 272 272 273 273 273 273 274 274 274 274 275 275 275 276 276 276 276 276 277 277 277 277 276 276 276 276 276 276 276 276 276 276 276 276 276 276 276 276 276 276 276 276 276
287 286 286 286 286 286 285 284 283 283 282 281 280 279 279 279 279 278 278 277 276 276 275 275 274 274 274 273 273 273 273 273 273 273 272 272 271 271 271 272 272 273 273 273 274 274 274 274 274 274 274 274 274 275 275 276 276 276 276 276 276 276 276 276 275 275 274 274 274 274 275 275 275 275 275 275 275 275 275 275 275 276 276 276 276
287 286 286 285 285 285 284 283 283 282 281 280 279 279 279 279 278 278 277 277 276 275 274 274 273 273 273 273 273 273 273 273 272 272 272 272 270 271 272 273 273 273 274 274 274 274 274 274 273 272 273 273 274 274 274 274 274 274 274 274 274 275 275 274 273 272 272 272 273 273 273 274 274 274 274 274 274 274 274 275 275 275 275 275 275
286 286 285 285 285 284 284 283 282 282 281 280 279 279 279 278 277 277 276 276 275 274 274 273 273 273 273 273 272 272 272 272 272 272 272 271 270 271 272 273 273 274 274 274 274 274 273 272 272 272 272 273 272 272 273 273 272 272 272 273 273 273 272 271 271 271 271 271 271 272 272 273 273 273 273 274 274 274 274 274 274 274 274 274 274
285 284 284 284 284 284 283 282 281 281 280 279 278 278 278 277 277 276 276 275 274 274 273 273 272 272 272 272 272 272 272 272 272 272 271 270 270 271 272 272 273 274 274 274 273 272 272 271 272 271 271 271 271 271 270 270 270 270 271 271 270 270 269 269 269 269 270 270 271 271 271 272 272 272 273 273 273 273 273 273 273 274 274 274 274
283 283 283 284 283 283 282 281 281 280 279 278 278 278 277 276 276 276 275 275 274 273 273 272 272 271 271 271 271 271 270 270 271 271 271 270 270 271 272 272 273 274 274 273 272 272 271 271 270 270 269 269 269 268 268 268 268 268 269 268 268 267 267 267 267 268 268 269 269 270 271 271 272 272 272 272 273 273 273 274 274 274 274 274 274
283 283 282 282 282 281 281 280 279 278 277 277 277 277 277 276 275 275 275 274 274 273 272 271 271 270 270 270 270 269 269 269 269 269 270 270 270 271 271 272 273 273 273 272 271 271 270 269 269 268 268 268 268 267 266 267 267 266 266 266 265 265 266 266 266 266 267 267 268 269 270 270 271 271 272 272 273 273 274 274 274 274 274 274 274
283 282 282 281 280 280 280 279 279 278 277 277 277 276 276 276 275 275 275 274 273 272 271 271 271 270 270 270 269 268 268 269 269 269 270 270 270 271 272 272 273 273 272 271 270 270 269 268 268 268 268 269 268 267 266 266 265 265 265 265 264 265 265 265 265 265 266 267 267 268 269 269 270 270 271 272 273 273 274 274 275 275 275 275 275
282 282 282 281 280 279 279 278 278 278 277 277 277 277 276 276 276 276 275 274 273 272 271 271 271 270 270 269 268 268 268 269 269 270 270 270 271 271 272 273 273 272 271 271 270 269 269 268 268 268 269 269 268 267 266 265 265 264 264 264 264 264 264 265 265 265 266 266 266 267 267 268 269 269 270 271 272 273 274 274 275 275 275 275 275
280 280 280 279 279 278 278 277 277 277 277 277 277 277 277 276 276 275 274 273 272 271 271 271 271 271 270 269 268 268 268 269 269 270 271 271 272 272 272 273 273 272 271 270 269 269 268 267 268 268 267 266 266 265 265 264 264 264 264 264 264 264 264 265 265 265 265 265 266 266 267 267 268 269 270 271 272 273 273 274 274 275 275 275 276
278 278 277 277 277 277 277 276 276 276 276 276 276 276 275 275 274 274 273 272 272 271 271 271 271 270 269 269 269 269 269 269 270 271 271 271 271 272 272 273 272 271 270 270 269 268 267 267 267 266 265 264 264 264 264 264 264 264 264 264 264 264 264 265 265 265 265 265 265 266 266 267 268 269 270 270 271 271 272 272 273 274 275 275 276
277 276 276 276 277 276 276 275 275 275 275 275 274 274 274 273 273 272 272 272 272 271 271 270 269 269 269 269 270 270 270 270 271 271 271 271 271 272 272 272 271 270 269 268 268 267 266 266 265 265 264 264 264 263 263 263 263 263 263 263 264 264 264 264 265 265 265 265 265 266 266 267 268 268 269 269 270 270 270 271 272 273 274 274 275
277 277 276 276 275 275 274 274 274 274 274 274 273 273 272 272 272 271 271 271 271 270 270 269 269 269 270 270 270 271 271 271 271 270 270 270 271 272 272 271 270 269 268 267 266 266 265 265 264 263 263 263 263 263 262 262 262 263 263 263 263 264 264 264 264 264 265 265 266 266 267 267 267 268 268 268 269 269 269 270 271 271 272 273 274
277 277 276 275 274 273 273 273 274 274 274 273 273 272 271 271 270 270 270 270 269 269 269 269 268 269 269 270 270 271 271 270 270 270 270 270 271 271 271 269 269 268 267 266 266 266 265 264 263 263 263 263 263 262 262 262 262 262 262 263 263 263 264 264 264 264 265 266 266 266 267 267 267 267 267 268 268 268 269 269 270 271 271 272 273
275 275 275 274 274 273 273 273 274 273 273 272 272 271 271 270 270 270 269 269 268 268 269 269 268 268 268 269 269 269 269 269 269 269 269 270 270 270 269 268 268 267 266 265 265 265 265 264 263 263 262 262 263 262 262 262 262 262 262 262 263 263 263 264 264 265 266 266 266 266 266 267 267 267 267 267 267 268 268 269 269 270 271 272 272
274 273 273 273 273 273 273 274 274 273 272 271 271 270 270 269 269 268 268 268 268 268 269 269 269 268 268 268 268 268 268 268 268 268 269 269 269 269 268 267 266 265 265 265 265 265 265 264 263 263 262 262 262 262 261 261 261 261 262 262 262 263 263 264 264 265 266 266 266 266 267 267 266 266 266 267 267 267 268 268 269 270 270 271 272
273 272 271 271 272 272 273 273 273 272 271 271 270 270 269 268 268 267 267 267 267 268 268 269 269 268 268 268 267 267 267 267 267 267 268 268 268 267 267 266 265 264 265 265 265 265 265 264 263 263 263 262 262 261 261 261 261 261 261 261 262 262 263 264 265 266 266 266 266 267 267 266 266 266 266 266 267 267 267 268 268 269 270 270 271
272 271 270 271 271 272 271 271 271 270 270 270 269 268 267 267 267 266 266 266 266 266 267 268 268 268 268 268 268 267 267 266 266 266 267 267 266 266 266 265 264 264 264 265 264 264 264 264 263 263 263 263 262 262 261 261 261 261 261 261 261 262 263 264 265 266 266 266 267 267 267 266 266 266 266 267 267 267 267 268 268 269 269 270 270
270 270 270 270 270 270 270 269 269 269 268 268 267 266 266 266 265 265 265 264 264 264 265 266 267 268 268 268 268 267 266 266 265 265 266 266 266 265 265 264 264 264 264 264 264 264 264 264 264 263 263 263 262 262 261 261 261 261 261 261 261 262 263 264 265 265 266 266 267 267 266 266 266 266 266 267 267 267 267 268 268 268 269 269 270
268 268 268 269 269 269 269 268 268 268 267 266 265 265 265 264 264 264 263 263 263 263 263 264 265 267 268 268 267 266 265 265 264 264 264 265 265 265 264 264 263 264 264 264 264 264 263 264 263 263 263 263 263 262 262 261 261 261 261 261 261 262 263 264 264 265 266 266 266 267 266 266 266 266 266 266 267 267 267 268 268 268 269 269 270
268 267 268 268 268 267 267 267 267 266 266 265 265 264 264 263 263 263 263 263 262 262 262 263 265 267 267 267 266 266 264 263 263 263 263 263 264 265 264 264 263 263 264 264 264 264 263 263 263 263 263 263 263 263 262 262 262 262 261 261 261 262 262 263 264 265 265 266 266 266 266 266 266 266 266 266 267 267 267 267 268 268 269 269 270
267 267 267 267 267 266 266 266 265 265 265 265 264 264 263 263 263 263 262 262 261 261 261 263 265 266 266 266 266 265 263 262 263 263 263 262 263 264 264 264 263 263 263 264 264 263 263 263 263 263 263 263 263 263 262 262 262 261 261 261 261 261 262 263 264 264 265 265 266 266 266 266 266 266 266 266 267 267 267 267 267 268 268 269 269
267 267 267 266 265 265 264 264 264 264 264 264 263 263 263 262 262 262 261 261 261 261 261 262 264 266 266 265 265 264 262 262 263 263 262 262 262 263 264 264 263 263 263 263 263 263 263 263 263 263 263 263 263 263 262 262 262 261 261 261 261 261 261 262 263 264 265 265 265 266 266 265 265 265 266 266 266 266 266 267 267 268 268 269 269
266 266 266 265 265 264 263 263 263 263 263 263 262 262 262 262 261 260 260 260 260 260 260 261 263 264 265 265 264 263 262 262 262 262 262 262 263 263 263 263 263 263 263 262 262 262 262 262 263 263 263 263 263 262 262 262 262 261 261 261 261 261 261 262 263 263 264 265 265 265 265 265 265 265 265 265 266 266 266 266 267 267 268 268 269
265 264 264 264 264 263 263 263 262 262 262 262 262 261 261 260 260 259 259 259 260 260 260 260 261 263 264 264 264 263 263 263 263 263 263 263 263 263 263 263 263 263 262 262 262 262 262 262 262 262 262 263 263 262 262 262 262 261 261 261 261 261 261 261 262 262 263 264 264 265 265 265 265 265 265 265 265 265 266 266 266 267 267 268 269
264 264 263 263 263 263 262 262 262 261 261 261 260 260 260 259 259 259 259 259 259 259 259 259 260 261 262 263 263 263 263 263 263 263 263 263 263 263 263 263 263 262 262 262 262 262 261 261 261 262 262 262 262 262 262 262 262 262 261 261 261 261 262 262 261 262 262 263 264 264 265 265 265 265 265 265 265 265 265 266 266 266 267 268 268
263 263 262 262 262 262 261 261 261 261 260 260 259 259 259 259 259 259 258 258 258 258 259 259 259 260 261 262 263 263 263 263 263 263 263 263 263 263 263 263 262 262 262 262 262 262 261 261 261 261 261 262 262 262 262 262 262 262 262 262 262 262 262 262 261 261 262 262 263 264 265 265 265 265 265 265 265 265 265 265 266 266 266 267 267
262 262 261 261 261 261 261 261 260 260 259 259 259 258 258 258 258 258 258 258 258 258 258 258 259 259 260 261 262 263 263 263 263 263 263 263 263 263 263 262 262 262 261 261 262 262 261 261 261 261 261 261 262 262 262 262 262 262 262 262 262 262 262 262 261 261 262 262 263 264 264 265 265 265 265 265 265 265 265 265 266 266 266 266 267
262 261 261 261 260 260 260 260 259 259 259 258 258 258 258 258 257 257 257 257 258 258 258 258 259 259 260 261 262 262 262 262 262 263 263 263 262 262 262 262 261 261 261 261 262 262 261 261 261 261 261 261 262 262 262 262 262 262 262 262 262 262 262 262 262 262 262 263 264 264 264 265 265 265 265 266 266 265 265 266 266 266 266 266 266
261 260 260 260 260 259 259 259 259 258 258 258 257 257 257 257 257 257 257 257 258 258 258 259 259 260 260 260 261 261 261 261 261 262 262 262 262 261 261 261 261 261 261 261 262 262 261 261 261 261 261 261 262 262 262 262 262 262 262 262 262 262 262 262 262 262 263 264 264 264 264 265 265 265 265 266 266 266 266 266 266 266 266 266 266
260 259 259 259 259 259 259 258 258 258 258 258 257 257 257 257 257 257 257 258 258 258 258 259 259 260 260 260 260 260 260 261 261 261 261 261 261 261 261 261 261 261 261 262 262 262 262 262 261 261 261 261 261 261 262 262 262 262 262 262 262 262 262 262 262 263 263 264 264 264 264 265 265 265 265 265 265 266 266 265 265 266 266 266 266
259 259 259 259 259 259 259 258 258 258 258 258 257 257 257 257 257 257 257 258 258 258 259 259 259 260 260 260 260 260 260 260 260 261 261 261 261 261 261 261 261 261 261 261 261 261 261 261 261 261 261 261 261 261 261 261 261 261 262 262 262 262 262 262 262 262 263 264 264 264 264 265 265 265 265 265 265 265 265 265 265 265 266 266 266
Wind_Speed
25 24 22 21 20 19 17 15 14 12 10 9 9 8 8 7 8 8 8 9 10 10 10 11 12 13 14 14 15 16 16 16 17 17 16 16 16 16 16 17 17 17 17 18 18 19 20 19 18 17 16 15 14 14 14 14 13 14 14 14 16 15 16 18 17 21 29 26 23 24 21 21 25 24 23 25 24 24 24 23 23 27 31 32 31
25 23 22 20 19 17 15 14 12 10 8 7 6 6 5 6 6 7 8 9 10 10 11 12 13 14 14 15 15 16 16 16 16 16 15 15 15 16 16 16 16 16 17 17 17 18 18 18 17 16 15 16 15 14 14 14 13 14 14 14 17 16 15 18 19 20 27 29 27 26 22 20 23 22 21 25 26 25 25 25 23 23 26 29 31
24 23 21 20 18 16 14 12 10 8 7 5 4 4 4 5 6 8 9 10 10 11 12 12 13 14 15 15 15 15 15 15 15 15 15 15 15 15 15 16 16 16 16 17 17 18 18 17 16 16 16 16 15 14 13 13 13 14 15 15 16 18 16 17 20 21 25 30 29 27 24 21 22 23 22 24 27 26 25 26 24 23 23 24 28
25 23 22 20 18 16 14 12 9 8 6 5 3 3 4 5 6 8 9 10 11 11 12 13 13 14 14 14 14 14 14 14 14 14 14 14 15 15 15 16 16 16 17 16 17 17 16 15 15 15 15 14 15 14 13 13 14 14 16 16 15 17 17 16 18 21 23 28 29 27 26 24 23 24 23 23 25 26 26 26 25 25 25 25 25
26 24 22 21 19 16 14 12 10 8 7 4 3 2 3 4 6 8 9 10 11 11 12 12 13 13 13 13 13 13 13 14 13 14 14 14 15 15 16 16 16 16 16 16 17 16 14 14 15 14 14 14 14 14 14 15 16 15 16 16 16 17 18 17 18 20 22 26 29 28 27 25 24 23 23 23 25 26 25 25 26 27 27 26 24
27 25 24 22 19 17 14 13 11 9 7 5 3 1 2 4 7 8 9 9 10 10 11 12 12 12 12 12 12 12 13 13 13 13 14 14 14 15 16 16 16 17 16 16 16 15 14 14 14 13 13 14 15 15 16 16 17 17 17 17 17 17 18 18 18 20 21 24 27 28 27 24 23 23 22 22 24 26 25 25 25 24 24 24 23
28 27 25 22 20 18 15 14 12 10 8 6 3 1 2 5 7 8 8 9 10 10 11 11 11 11 11 11 11 12 12 12 12 13 13 14 14 15 15 15 16 16 16 15 15 14 14 14 14 13 13 14 15 15 17 18 18 18 18 18 18 18 19 19 19 20 22 23 23 24 25 24 23 23 23 23 23 23 23 24 25 24 23 24 26
30 28 26 23 21 19 17 16 13 11 9 7 4 2 2 5 6 8 9 9 10 10 11 11 11 12 11 11 11 11 11 11 12 12 13 13 14 15 15 15 15 15 14 14 14 14 14 13 13 13 13 14 16 17 18 18 18 18 18 17 18 18 18 19 19 20 21 22 22 22 24 24 23 22 23 22 22 21 20 22 25 27 27 27 27
31 29 27 25 22 20 19 17 15 13 11 8 5 3 3 4 6 8 9 10 10 11 11 11 11 11 11 11 10 10 11 11 11 12 12 13 13 14 14 14 14 13 13 13 13 13 12 13 13 14 17 19 19 18 18 18 18 18 17 17 17 18 18 18 18 19 20 20 21 21 21 22 21 22 22 21 22 23 23 23 25 26 27 28 29
32 30 28 27 25 22 20 18 16 15 12 10 6 4 4 4 6 9 10 11 11 11 11 11 11 11 11 10 10 10 11 11 11 11 11 11 12 12 12 12 12 12 12 12 12 12 12 14 15 17 19 20 19 18 18 18 18 18 18 18 17 17 18 18 18 19 20 20 20 20 20 20 21 21 22 23 23 24 23 23 24 24 23 25 28
33 32 30 29 27 24 22 20 18 17 14 11 8 6 5 5 7 9 10 11 12 12 11 11 11 11 11 10 10 10 10 11 11 11 11 10 10 11 12 11 11 11 12 11 10 12 14 15 16 17 18 17 17 17 18 18 18 18 18 18 18 18 19 19 19 20 20 21 21 20 20 21 21 21 22 23 22 22 22 21 22 23 22 20 22
34 33 32 31 28 25 24 22 20 18 15 12 10 7 6 6 8 10 11 12 12 12 12 11 11 12 12 11 10 10 10 11 11 11 11 10 10 10 12 12 11 11 11 10 10 12 15 16 16 16 16 15 17 18 18 18 18 18 18 18 19 19 19 20 20 22 23 23 24 23 22 23 23 21 21 22 23 22 22 22 22 23 23 21 22
35 34 33 32 29 27 26 24 22 20 16 13 11 9 8 8 9 10 12 12 13 13 12 12 11 12 12 11 11 11 10 11 12 11 11 11 10 10 11 12 11 12 11 10 10 11 13 15 16 16 16 16 17 18 18 19 19 19 19 19 19 20 22 23 24 25 26 27 28 27 25 25 24 23 22 23 25 25 24 24 24 24 25 24 25
36 36 35 33 31 29 27 25 23 21 17 15 12 11 10 10 10 11 12 12 13 13 13 12 12 12 12 12 11 11 11 11 12 12 12 11 10 10 11 13 13 13 12 10 10 10 12 14 16 17 17 18 18 18 19 20 20 20 19 20 22 24 24 25 26 27 28 28 29 29 28 26 27 27 27 27 28 29 27 27 26 26 26 25 27
37 36 35 33 31 30 28 27 25 22 19 16 14 13 11 11 11 12 12 13 13 13 13 13 12 12 12 13 12 11 11 11 13 13 12 11 10 11 13 14 13 13 12 11 11 11 12 13 15 18 19 19 19 19 21 21 21 23 26 27 30 30 28 28 30 31 29 28 29 30 29 28 28 29 29 28 28 29 29 30 30 29 29 28 27
37 36 35 33 32 30 29 28 26 23 20 18 16 14 13 12 12 12 13 13 14 14 14 13 13 12 12 13 14 12 11 12 13 13 12 11 11 12 13 13 12 11 11 12 12 12 12 13 15 18 20 21 21 22 23 23 24 28 32 34 35 36 35 34 34 34 32 30 31 32 32 31 32 32 32 30 31 31 32 33 32 30 29 27 24
37 36 35 34 33 31 30 29 27 24 22 19 17 15 14 13 13 13 13 14 14 14 14 14 13 13 13 13 14 14 12 12 13 13 12 11 11 12 12 11 10 11 12 13 13 13 14 15 18 19 20 22 23 24 25 26 27 31 33 34 35 34 34 33 31 30 33 35 36 36 36 35 35 35 34 34 34 32 32 31 28 27 26 21 19
38 37 36 35 33 32 31 30 28 25 23 20 18 16 15 14 14 14 14 15 15 15 15 15 14 14 14 13 14 15 14 12 13 14 12 11 11 11 10 10 10 12 13 13 14 16 19 21 22 22 22 23 24 26 26 27 29 31 32 32 32 31 30 30 28 26 28 31 32 33 33 32 31 30 30 31 31 30 29 29 27 27 26 21 20
39 38 38 36 34 32 32 30 28 26 23 20 18 17 16 15 14 14 15 16 16 15 16 16 15 14 14 14 14 15 15 14 13 14 12 11 10 9 9 10 11 13 14 16 19 21 22 22 21 21 22 24 26 27 28 28 29 30 30 29 29 28 25 24 25 27 28 28 26 26 25 24 23 24 25 27 28 28 29 30 28 27 26 24 24
40 40 38 36 34 33 32 30 29 27 24 21 19 18 17 16 15 15 16 16 17 17 16 17 17 15 14 13 14 15 16 15 13 13 12 11 9 8 9 10 12 14 16 18 20 20 19 18 17 18 21 24 27 28 30 31 31 31 29 27 26 26 26 27 28 28 27 25 22 21 21 20 20 22 24 25 26 26 27 26 26 26 25 26 26
39 39 38 36 35 34 32 31 29 27 24 21 20 19 17 17 16 16 16 17 17 17 17 17 18 16 14 13 13 13 15 15 14 13 12 10 7 8 10 11 12 15 16 17 17 17 17 16 16 19 22 26 28 30 31 32 32 31 29 27 27 29 31 31 27 22 21 22 22 22 22 22 22 24 24 24 23 24 24 24 24 25 25 25 26
39 38 37 36 35 34 33 32 29 27 25 23 21 19 18 17 17 16 17 17 18 18 17 17 18 17 15 14 13 13 13 14 14 14 12 9 7 9 11 12 13 15 16 17 17 17 16 17 19 22 24 27 29 30 30 30 30 28 27 27 28 30 30 27 23 21 20 21 20 19 19 20 21 21 21 22 22 22 22 22 23 23 24 25 26
37 37 37 36 36 35 34 32 30 28 26 24 22 20 19 18 17 17 17 18 18 18 17 17 17 17 16 15 13 13 12 12 13 14 11 7 7 10 12 13 13 14 16 17 16 15 16 17 20 23 26 28 29 29 29 28 26 25 25 26 27 27 25 22 20 19 18 17 16 16 17 16 17 18 18 19 20 21 21 22 22 22 23 24 26
35 35 36 36 36 36 35 33 30 29 27 24 22 21 19 18 18 17 18 18 19 18 18 17 17 17 17 16 14 13 12 11 12 12 9 6 8 11 12 13 14 14 15 15 14 15 17 19 22 25 27 28 27 26 24 23 22 22 23 24 24 22 19 18 17 17 17 17 16 16 16 16 16 17 18 20 21 22 23 23 22 23 24 25 26
34 35 36 37 37 37 35 33 31 29 27 25 23 21 20 19 18 18 19 19 19 19 18 18 18 17 16 16 14 13 12 11 11 11 8 6 7 10 12 13 14 14 14 14 15 16 18 20 23 26 27 26 24 22 20 19 19 20 21 21 19 17 16 16 17 17 17 17 17 17 18 18 18 19 20 22 23 24 23 22 22 22 22 22 23
34 35 36 38 38 37 35 34 32 30 27 25 23 22 20 20 19 19 20 20 20 19 18 18 18 17 16 16 14 12 10 8 9 10 8 6 7 10 12 13 13 12 14 15 16 18 20 23 26 27 26 24 22 19 18 17 18 18 17 16 16 15 15 15 15 16 17 17 18 18 19 19 20 21 21 22 22 23 22 21 22 21 20 21 23
34 35 37 37 38 37 36 35 33 31 28 26 24 23 22 21 21 21 21 21 21 20 19 18 18 17 16 15 13 10 8 7 7 8 7 7 8 11 13 12 11 12 14 15 16 19 23 25 26 25 23 22 21 20 19 20 19 16 14 14 14 13 13 14 14 16 17 17 18 19 20 21 21 22 21 20 21 22 22 21 21 22 21 22 23
34 36 37 38 38 38 37 36 34 31 29 27 25 24 23 23 23 23 22 21 20 19 19 19 18 17 16 14 11 8 6 7 8 7 7 8 11 12 12 12 11 11 12 13 16 20 24 25 24 23 22 22 23 22 22 20 18 16 15 13 13 12 12 13 14 14 15 16 18 20 21 21 21 21 21 21 21 22 21 20 21 22 23 22 22
34 35 36 37 39 38 37 36 34 32 30 28 26 25 24 23 24 23 21 19 19 19 19 19 18 16 14 13 11 9 9 10 9 8 9 11 13 13 13 13 12 11 12 14 18 21 23 23 22 21 21 20 20 20 20 19 19 18 16 13 12 12 13 13 14 14 15 16 18 19 20 20 21 21 21 21 21 21 21 21 22 23 23 23 23
33 34 35 37 38 38 37 36 34 32 30 27 26 25 24 23 24 23 20 18 18 18 19 18 16 14 14 14 14 14 14 14 12 11 12 13 13 14 14 14 13 12 12 14 18 20 20 19 18 17 17 15 15 15 16 16 17 19 19 16 13 13 14 13 14 15 15 15 16 18 19 19 20 20 21 21 22 22 22 22 22 23 22 22 23
33 34 36 37 38 38 38 36 34 31 29 27 26 25 24 23 23 22 19 17 17 17 17 16 15 15 16 18 17 17 17 16 14 14 15 14 14 14 13 12 11 10 11 14 17 18 16 15 15 14 12 11 11 12 12 13 14 16 18 18 16 15 14 13 14 16 16 16 16 18 18 19 20 20 21 22 22 23 23 22 21 22 22 22 22
35 36 37 37 37 36 36 34 32 30 28 27 26 25 23 22 21 20 18 17 16 16 16 15 16 17 17 18 17 17 16 15 15 15 14 14 14 14 12 11 11 11 12 14 16 15 14 12 12 11 10 10 10 10 9 10 11 12 14 17 18 16 15 15 17 19 17 16 17 18 19 19 20 20 21 21 22 22 22 21 21 21 21 22 22
36 36 36 35 34 34 33 32 30 30 29 27 26 24 23 22 19 16 15 15 15 15 15 16 17 16 15 15 15 15 15 14 13 13 14 14 14 12 11 13 15 15 14 14 14 13 12 11 11 11 11 11 12 11 9 9 11 11 12 14 15 16 18 20 21 18 16 15 17 19 19 20 20 20 21 21 21 20 21 21 21 21 21 21 22
34 33 33 34 33 33 32 31 31 30 29 27 25 24 22 21 18 16 15 16 16 16 16 16 16 17 17 16 15 16 16 14 13 13 14 14 12 11 12 16 17 16 14 13 13 12 11 11 12 12 12 12 14 13 11 10 12 13 13 13 14 16 18 20 18 16 15 17 18 19 19 19 19 20 21 21 20 20 20 20 20 20 20 21 22
31 30 30 30 31 31 31 31 31 29 27 25 24 23 21 19 18 17 17 17 17 18 17 16 16 17 18 18 18 18 18 15 13 13 13 12 11 13 15 18 17 15 14 13 12 11 12 12 12 13 13 14 14 13 12 13 15 15 14 15 16 17 18 18 17 16 16 18 19 19 18 18 19 19 20 21 20 20 20 20 20 20 21 21 22
29 29 27 27 28 29 29 29 28 27 25 24 22 21 20 19 18 17 17 17 18 19 19 17 16 16 17 18 19 19 18 15 13 12 12 12 14 16 17 17 16 15 14 13 12 12 12 12 13 14 14 15 16 14 13 15 18 18 17 18 18 18 18 17 17 17 18 19 18 18 18 19 19 19 19 20 20 20 20 21 21 21 22 22 22
28 28 27 26 26 26 25 25 24 23 22 21 21 20 20 19 18 18 18 18 18 19 19 19 17 16 17 17 16 16 16 16 15 13 12 13 17 18 17 16 16 16 16 14 13 13 13 12 13 14 15 16 16 16 16 17 20 21 20 18 18 17 17 18 18 18 19 18 17 17 18 19 19 19 19 20 21 21 21 21 21 22 23 24 23
26 27 27 26 25 23 22 21 21 21 20 20 20 20 19 19 18 18 18 18 18 18 19 19 18 17 17 16 15 14 14 16 16 15 14 16 19 18 16 16 16 16 16 15 14 13 13 13 13 14 15 16 16 17 17 18 20 21 20 19 18 17 17 17 18 17 18 18 17 17 18 18 19 19 19 20 21 21 21 22 22 22 23 23 22
24 24 24 23 22 21 20 20 20 20 20 20 20 19 18 18 18 18 18 18 18 18 19 19 19 18 17 15 15 15 15 16 16 14 13 16 19 18 16 16 16 16 17 17 15 14 15 15 14 14 15 15 16 17 18 19 20 21 21 21 19 17 16 16 17 17 17 18 17 16 16 17 18 18 18 19 21 21 22 22 22 22 22 22 22
21 21 21 20 19 19 19 19 19 19 20 20 19 18 18 18 19 19 19 19 19 19 20 20 20 19 17 15 15 15 15 16 15 12 10 12 16 16 15 15 16 17 17 17 16 16 16 16 15 15 15 15 16 17 18 19 20 21 21 21 19 17 16 16 17 17 17 18 18 17 17 18 19 19 18 19 20 21 21 22 22 22 22 22 22
19 18 18 17 17 17 17 18 19 19 19 19 18 18 19 19 19 20 20 20 20 20 20 21 21 19 17 16 15 14 14 16 16 13 12 13 16 17 16 16 17 17 17 18 17 16 16 17 17 17 16 16 16 17 18 19 20 21 22 22 20 17 16 16 16 17 18 19 19 18 18 20 21 20 20 21 21 22 22 22 22 22 22 22 22
16 16 16 15 15 15 15 16 17 17 17 17 18 18 19 19 19 19 19 19 19 19 20 22 22 20 18 17 15 13 14 16 17 18 19 20 20 19 18 17 17 17 17 17 17 16 17 17 18 18 18 18 17 17 18 19 20 21 22 22 22 20 18 16 16 17 18 18 19 20 20 20 21 21 21 22 21 21 21 21 22 22 22 21 21
14 14 14 15 15 15 15 15 15 16 16 17 17 17 18 18 18 18 18 18 19 19 19 21 23 21 19 17 15 14 15 18 21 23 24 24 22 20 19 18 18 18 17 17 17 17 17 18 19 19 19 19 18 18 19 19 20 21 22 22 23 22 20 18 17 17 18 18 20 21 21 20 21 23 23 22 21 20 20 21 21 21 21 21 21
12 12 13 13 14 14 15 15 15 15 16 16 17 17 18 18 18 18 19 20 21 21 20 21 22 22 20 18 17 16 18 20 22 23 24 23 22 21 20 19 19 18 18 18 17 17 17 19 19 19 20 20 20 20 20 20 20 21 21 22 23 23 22 21 19 18 18 19 20 21 21 21 24 27 26 24 22 20 19 19 20 20 20 20 19
11 11 12 13 13 14 14 15 15 15 15 16 16 17 17 18 19 19 20 20 20 20 21 21 22 21 20 19 19 18 18 19 20 21 21 21 21 21 20 19 19 19 19 19 19 18 18 19 20 20 20 20 21 21 22 21 21 21 21 21 22 23 23 23 21 19 18 19 21 20 20 24 29 31 30 27 25 21 19 19 20 19 19 19 18
11 11 12 12 13 13 14 14 14 14 14 15 16 16 17 18 19 20 20 20 20 20 20 21 21 21 20 20 19 19 18 18 18 19 20 20 20 20 20 19 19 19 20 20 20 20 20 20 20 21 21 21 21 22 22 23 22 22 22 21 22 23 23 22 21 19 18 18 19 20 21 25 31 33 31 29 26 22 20 21 21 19 18 18 18
9 10 11 12 12 13 13 13 13 14 14 15 16 16 17 18 18 18 19 20 20 20 21 21 22 22 21 20 19 19 18 17 18 18 19 20 20 20 20 20 20 20 21 21 21 22 22 21 21 21 21 21 22 22 22 23 23 23 23 22 22 22 22 21 21 20 18 16 17 19 22 25 30 31 30 28 25 23 22 23 22 21 19 17 17
7 8 9 10 11 11 12 12 12 13 14 15 15 16 16 17 18 18 18 19 19 20 20 21 21 21 21 20 19 18 18 18 18 18 19 19 20 20 20 20 20 21 21 22 22 22 22 22 21 21 21 21 22 22 22 22 23 23 23 23 22 21 20 20 21 20 16 14 16 19 21 24 27 29 28 26 23 22 22 22 22 21 20 17 17
6 6 8 9 10 11 12 13 13 14 15 15 15 15 15 16 18 18 17 18 19 19 19 20 20 20 19 19 18 18 17 18 18 18 19 19 20 20 20 21 21 21 22 22 22 22 22 21 21 21 21 21 22 22 22 22 22 23 23 23 21 20 20 20 19 17 14 13 16 19 21 24 26 26 25 23 21 19 20 21 21 21 20 19 19
4 5 6 8 9 11 12 13 14 15 16 15 15 15 16 17 18 18 18 19 19 19 19 19 19 18 18 17 17 17 17 18 18 19 19 20 20 20 20 21 21 21 21 22 22 22 21 21 21 21 21 22 22 22 22 23 22 22 22 22 21 20 19 18 17 15 12 11 15 20 22 24 25 24 21 20 18 18 19 20 20 19 19 19 18
3 4 5 7 8 9 11 12 13 14 15 15 15 16 17 17 18 18 18 18 19 18 19 18 18 17 17 17 17 17 18 18 18 19 20 20 20 20 20 20 20 20 21 22 22 22 21 20 21 21 21 21 21 21 21 22 22 22 22 22 21 20 18 17 17 15 12 11 15 19 21 22 22 21 19 17 17 17 17 18 18 18 18 17 16
Wind_Direction
153 151 148 145 141 136 132 127 122 118 111 102 91 81 72 64 56 48 38 31 25 21 18 14 12 10 9 8 6 4 3 1 360 360 359 357 355 353 351 351 352 350 348 347 345 343 342 340 336 332 330 325 319 314 309 305 301 294 291 289 285 282 281 280 279 286 291 293 293 294 298 298 296 297 300 300 301 302 299 293 290 292 294 295 294
160 158 155 151 148 144 141 136 132 128 122 110 98 89 79 67 54 42 31 23 18 14 11 8 6 4 3 2 1 0 359 358 358 357 356 354 352 350 350 349 349 347 346 345 342 342 341 338 334 330 328 325 320 314 310 307 304 299 296 293 290 288 285 284 284 287 292 296 298 298 301 301 297 300 305 304 303 304 301 297 294 290 290 292 294
167 164 161 159 157 154 151 148 145 141 136 130 119 102 79 57 42 30 21 14 9 6 3 1 359 359 359 359 359 358 356 355 355 353 352 351 349 348 347 345 345 344 343 341 341 342 340 336 333 330 327 326 320 315 312 308 306 303 300 297 294 293 290 286 286 286 290 295 298 301 305 306 303 303 305 304 303 304 302 300 298 294 290 288 289
174 171 169 168 166 165 162 160 160 162 162 159 136 98 61 41 26 15 10 4 0 357 355 354 354 354 355 356 355 354 352 350 349 348 347 345 344 343 342 342 342 342 341 340 339 339 336 331 329 328 325 322 318 315 313 311 308 305 302 300 298 296 296 291 288 288 290 293 296 300 304 307 306 305 306 305 302 302 302 301 300 299 295 291 286
180 178 177 176 175 174 173 173 178 184 183 174 143 94 43 22 10 4 0 355 352 350 348 348 349 350 350 350 351 348 346 345 344 343 341 340 340 338 339 340 340 340 339 337 338 336 331 325 322 323 321 318 317 315 312 311 308 305 303 301 300 299 297 295 291 290 289 291 294 299 303 306 307 306 308 308 305 303 302 301 301 300 299 295 290
186 185 185 184 183 181 181 186 195 197 194 188 177 138 12 4 358 355 351 347 345 343 342 342 343 344 344 345 346 343 341 341 338 338 337 335 336 336 338 338 336 337 336 332 333 330 324 320 317 316 315 313 311 311 309 309 307 304 303 302 301 300 298 297 295 293 290 290 294 299 303 308 310 310 311 312 310 308 307 306 304 303 304 304 301
191 191 191 191 190 188 190 199 205 204 202 201 202 238 343 352 350 346 342 340 338 336 336 336 336 337 339 340 341 339 338 336 334 334 333 332 333 334 335 334 331 333 331 325 325 324 318 315 312 308 308 307 305 306 307 307 305 302 303 303 302 301 300 299 299 297 295 294 295 299 303 307 310 310 311 313 310 307 309 310 309 309 310 308 305
195 196 196 197 197 195 200 208 211 209 210 211 218 250 329 343 339 336 334 332 331 330 329 330 330 331 333 335 337 336 334 332 331 330 330 331 332 332 331 330 327 326 322 317 316 315 310 307 305 301 300 299 298 300 301 303 302 302 302 303 303 302 302 302 301 300 298 297 297 299 301 304 307 309 311 314 311 309 312 312 309 307 307 305 301
198 199 201 202 202 203 208 213 214 215 216 217 225 253 305 326 327 327 327 325 323 323 322 323 324 324 327 330 332 332 329 328 328 327 328 330 330 327 324 322 319 316 312 308 307 304 300 299 299 296 297 298 297 294 295 296 297 297 299 301 302 302 301 301 301 301 300 298 298 300 301 303 306 309 310 311 308 307 309 307 301 301 304 303 299
201 203 205 207 208 209 213 215 217 219 219 220 230 249 277 308 318 318 318 316 316 315 315 317 318 318 321 325 328 330 327 324 324 324 326 328 324 318 311 306 305 303 302 301 300 300 298 297 297 297 300 303 301 296 295 295 292 291 293 296 297 298 299 299 299 299 298 297 297 299 300 299 302 305 304 304 303 303 305 304 300 302 306 304 300
204 206 209 211 212 213 215 217 220 221 219 222 232 244 265 293 305 308 309 309 308 309 309 311 313 313 317 322 326 328 324 319 320 321 320 320 317 310 301 295 293 292 294 296 297 300 301 301 301 301 302 302 300 299 298 297 295 292 291 291 290 292 293 294 294 295 293 292 292 294 295 295 299 301 300 301 301 301 301 302 301 302 305 303 300
206 210 212 214 214 215 217 219 221 222 220 223 233 242 259 279 292 297 300 300 301 303 304 307 310 311 314 319 323 324 321 316 314 314 314 315 314 306 297 292 289 288 291 292 294 300 303 303 302 301 299 298 299 300 299 299 298 295 292 291 289 287 284 283 286 288 288 289 290 290 291 292 294 296 296 298 298 298 296 294 293 294 295 297 297
209 212 215 216 216 216 219 221 221 222 221 225 233 240 253 268 281 288 291 294 295 297 299 303 307 308 310 315 318 318 317 312 309 310 311 311 312 306 295 289 285 285 287 288 291 296 299 302 302 299 298 299 301 301 300 300 299 296 293 290 287 285 284 282 281 281 282 284 285 285 285 285 287 288 288 290 291 291 289 285 284 285 285 287 292
210 214 215 216 217 218 220 221 221 221 222 226 233 239 249 261 272 279 284 288 290 293 296 300 302 305 306 309 312 315 314 308 307 309 309 309 311 304 291 285 285 286 286 285 287 290 293 296 297 297 299 300 299 299 299 299 297 294 290 284 283 285 283 281 280 279 279 279 278 278 278 278 280 281 282 282 282 282 281 279 279 280 280 282 288
210 214 215 216 217 218 219 220 220 221 223 227 233 238 246 256 265 273 279 284 287 290 293 296 298 301 304 305 308 312 312 307 305 307 307 308 308 297 288 289 289 288 285 283 283 286 289 291 291 293 297 297 295 295 296 296 294 291 287 282 281 281 279 279 283 281 277 273 272 273 273 272 272 273 274 274 272 271 272 274 277 281 284 286 288
210 212 213 215 217 218 219 219 219 220 223 227 232 238 245 252 261 269 276 281 285 287 290 294 298 300 302 304 306 309 311 305 302 305 307 307 303 296 294 295 290 284 283 283 284 284 286 288 289 291 293 293 293 294 295 295 293 290 287 285 283 282 280 282 282 279 277 276 275 275 273 272 272 272 272 273 272 273 276 279 284 288 289 289 289
210 212 214 216 217 217 218 219 219 220 223 227 232 237 243 249 258 267 274 279 282 285 289 293 296 300 302 303 304 307 309 305 302 304 306 304 301 299 297 291 283 282 283 283 284 284 286 291 293 291 290 291 293 296 298 297 295 293 291 289 286 282 280 282 280 278 282 287 288 287 286 286 286 284 282 282 282 283 285 286 288 291 289 287 288
211 212 215 217 217 218 219 219 220 221 225 228 232 237 242 248 257 266 273 278 281 285 290 292 295 299 301 302 303 305 308 307 304 304 303 300 298 297 292 285 282 285 285 285 286 290 295 301 300 292 288 292 296 299 301 301 299 296 293 289 286 281 279 280 279 278 281 285 288 289 287 289 291 289 286 284 283 283 282 281 284 286 283 280 282
213 215 218 218 217 219 219 219 220 222 226 229 231 235 242 248 257 266 271 277 281 284 288 291 293 296 297 300 302 302 305 308 304 302 301 297 296 292 285 281 283 285 287 290 295 299 303 305 300 291 290 296 301 303 304 303 299 295 292 289 287 285 285 285 285 287 289 287 286 285 282 282 284 284 281 278 276 275 274 274 276 277 275 275 278
217 218 219 218 218 219 219 219 220 223 226 229 231 235 242 248 256 264 269 274 279 283 286 288 290 293 295 298 299 300 302 304 302 300 298 296 293 287 281 280 282 286 291 295 299 302 302 301 299 297 299 302 304 305 306 304 302 301 300 296 293 295 299 300 299 300 301 300 296 293 291 288 286 283 280 276 273 271 270 269 269 269 270 272 273
220 219 218 218 218 219 218 219 221 224 226 228 230 235 241 249 256 261 267 273 277 280 283 285 288 291 294 296 298 298 299 300 300 299 297 295 290 281 279 280 284 290 295 298 299 299 299 301 305 307 307 307 307 308 307 307 307 307 304 301 300 303 305 306 308 310 309 305 300 295 292 289 285 283 281 277 274 273 271 269 268 267 267 269 272
219 219 218 218 219 219 219 219 220 222 225 227 230 236 241 248 255 259 265 271 273 276 279 282 286 291 293 295 296 295 294 296 298 298 296 292 285 281 280 283 288 294 296 297 298 301 304 307 308 309 310 311 311 310 310 310 310 308 305 304 306 307 308 309 312 313 309 303 298 292 288 286 285 284 282 279 278 278 276 274 272 270 269 268 269
221 220 219 219 219 219 218 219 220 222 225 227 230 236 242 247 252 257 263 268 271 274 278 281 285 289 292 294 295 293 291 290 293 297 300 293 283 284 285 287 292 294 295 296 300 305 308 309 309 311 313 314 313 312 311 311 311 309 309 310 311 313 314 314 313 312 309 303 297 292 289 287 288 288 286 285 286 285 282 280 278 275 273 271 268
221 220 219 218 218 218 217 218 220 223 225 227 229 234 240 245 250 256 261 265 268 273 277 281 284 287 291 295 296 293 292 291 293 300 305 297 287 288 290 294 296 296 295 298 302 305 307 309 311 314 316 315 314 313 313 313 314 314 315 317 318 319 319 317 314 312 307 302 298 294 291 291 291 289 287 289 291 290 288 285 282 278 275 273 272
218 218 218 217 217 217 216 217 220 222 224 226 229 234 239 243 247 253 259 262 266 270 274 277 280 283 287 292 295 295 296 298 302 309 314 306 295 295 298 299 298 297 298 300 301 304 306 309 313 316 317 318 319 320 320 320 320 320 321 323 324 323 321 317 314 310 305 301 298 296 295 295 293 290 290 292 292 291 290 289 286 281 276 275 275
217 216 216 216 215 215 214 216 218 220 223 226 230 234 237 241 245 251 256 259 263 266 270 273 276 280 283 288 292 295 295 295 300 308 311 303 298 308 311 305 298 298 301 301 302 303 304 309 315 319 321 325 328 329 329 329 328 325 323 323 324 322 319 316 314 309 304 301 299 298 297 297 297 295 294 294 293 292 291 292 290 286 281 281 282
217 217 216 215 214 213 214 216 217 219 221 224 228 232 235 240 244 248 252 256 259 262 266 268 272 276 279 283 287 287 282 283 289 292 289 285 297 313 316 307 299 300 303 304 303 302 304 311 317 320 322 328 335 339 340 339 337 331 325 320 318 316 313 312 310 307 304 302 301 301 300 301 301 300 297 295 295 294 293 293 291 288 285 284 284
220 219 217 215 214 214 215 216 217 219 222 225 228 232 236 240 245 249 252 255 258 260 263 266 271 274 275 279 282 277 268 276 282 276 273 285 298 307 307 302 300 303 307 308 304 302 307 315 320 324 328 334 340 343 343 341 336 329 324 319 314 312 312 312 311 307 306 305 304 303 303 304 303 302 300 298 297 298 298 297 293 290 289 285 280
221 220 217 215 215 215 215 216 218 220 223 226 229 234 239 243 247 251 253 255 259 262 264 267 271 273 270 269 270 268 271 279 279 273 279 289 294 295 297 299 301 305 310 309 302 303 311 318 323 330 335 337 339 340 339 337 332 327 325 323 318 316 317 318 317 314 312 310 307 305 305 305 305 305 305 303 302 303 305 303 298 295 292 286 280
219 218 217 216 216 215 215 216 218 219 222 225 229 234 239 243 247 251 253 255 258 262 265 269 272 274 275 278 282 284 287 289 284 277 283 289 289 288 292 295 296 304 310 306 300 303 312 319 324 332 335 332 330 331 332 331 327 324 325 325 323 322 320 318 320 319 315 312 309 308 307 307 307 308 309 307 307 307 307 306 303 299 296 292 287
219 219 219 219 218 217 215 216 216 217 221 225 229 233 237 242 247 253 256 258 260 264 268 270 268 268 273 280 288 291 288 283 276 275 282 287 285 286 291 291 293 305 311 302 299 304 312 318 323 327 327 321 319 320 320 320 318 318 320 323 325 325 320 317 320 321 317 315 314 312 311 309 308 309 309 308 307 307 307 308 307 304 300 297 293
223 223 222 221 219 218 217 216 216 218 221 224 228 232 236 240 246 253 259 262 262 262 265 262 256 255 259 266 273 278 276 271 269 272 279 281 282 286 288 281 283 295 300 295 294 301 310 316 319 318 316 313 312 309 307 308 309 309 311 316 320 322 319 320 322 319 315 315 316 316 314 312 309 308 308 307 306 305 305 306 307 306 303 299 296
228 227 225 221 219 218 217 216 218 221 223 224 227 231 234 238 242 247 254 260 261 258 257 254 251 251 251 253 257 261 263 266 271 273 275 278 281 282 275 269 276 288 293 290 291 299 309 314 314 313 311 310 311 310 303 299 303 305 304 306 309 312 318 325 325 317 311 314 316 315 315 313 311 309 308 307 306 305 304 304 303 302 302 301 300
229 228 226 223 221 220 218 218 220 222 224 225 228 231 235 239 242 242 244 250 256 259 257 253 250 249 247 246 247 248 252 263 272 272 273 278 278 268 262 270 281 290 289 284 287 298 307 311 312 312 311 311 313 313 307 303 307 307 304 302 302 306 315 322 319 312 312 315 315 314 314 313 312 311 310 309 307 305 304 303 303 302 302 302 302
227 226 226 225 224 222 221 221 223 224 225 225 228 232 235 238 242 243 243 245 250 256 258 255 250 247 247 249 251 252 255 264 269 269 271 274 264 253 261 274 283 286 282 280 285 295 303 308 310 311 311 312 313 311 307 307 310 307 304 305 307 308 311 311 308 308 314 316 314 315 316 315 313 312 310 308 307 306 305 305 304 303 302 302 302
224 222 222 222 222 223 225 225 225 226 227 228 230 232 234 236 238 241 245 247 249 254 258 257 252 249 249 251 253 254 255 256 257 260 266 264 254 254 265 275 280 279 279 281 286 291 298 305 309 311 313 313 312 310 309 311 313 313 311 309 307 305 305 306 307 311 315 315 315 317 318 318 316 314 311 309 308 307 306 306 306 304 302 302 301
222 220 219 220 220 223 225 227 226 226 228 230 231 231 231 234 236 238 242 245 248 252 257 258 258 256 255 255 257 256 253 251 250 250 253 254 255 258 265 270 272 275 278 281 285 289 295 301 306 310 313 313 311 312 312 313 317 318 316 311 305 301 301 304 308 311 313 315 316 318 320 320 319 317 315 313 311 310 309 308 307 305 303 302 301
222 220 219 219 220 223 225 226 226 226 228 230 231 231 232 233 235 237 240 244 246 249 253 256 258 259 258 259 260 260 258 257 255 248 242 245 253 257 261 265 268 272 275 279 283 286 291 296 301 306 310 312 312 313 313 314 318 318 316 313 308 302 301 305 308 311 314 315 316 318 320 320 320 320 319 315 312 312 312 310 308 306 305 304 302
219 220 220 221 223 225 227 227 227 227 228 230 231 233 234 236 237 238 241 243 245 247 249 252 256 258 259 259 262 264 264 263 260 250 239 242 249 252 256 263 267 269 273 278 281 284 288 292 296 301 306 310 313 314 314 315 317 317 317 317 312 305 304 308 309 312 315 316 316 318 319 319 320 321 320 318 315 313 312 310 309 307 306 305 304
216 217 219 221 224 227 230 231 230 230 231 232 235 237 239 240 241 242 243 245 246 248 249 251 256 261 263 261 262 266 266 263 259 249 238 245 253 256 258 263 267 269 271 275 277 281 286 290 293 297 302 307 311 314 315 315 316 316 317 316 311 303 302 306 307 310 314 316 316 317 318 319 320 320 319 319 318 316 312 311 310 309 307 306 305
216 218 221 224 225 228 232 232 232 234 236 239 242 244 245 246 246 247 248 248 249 251 253 255 259 264 265 263 262 261 259 260 259 251 243 251 261 267 268 267 267 268 270 271 274 278 282 286 291 295 299 303 307 310 311 313 314 314 314 313 311 306 302 303 305 307 310 313 315 317 318 320 321 320 317 317 319 318 314 313 313 312 311 310 308
221 225 228 228 226 227 231 234 236 239 242 245 247 248 250 252 252 252 251 250 251 252 255 260 264 266 265 264 263 255 249 252 255 254 254 259 266 271 271 269 268 269 269 269 272 275 278 282 287 292 296 300 304 306 307 308 310 311 309 310 311 309 305 303 305 306 309 312 315 316 317 319 320 319 316 316 318 318 316 315 315 315 314 314 315
229 232 233 233 230 231 235 240 243 244 245 248 251 254 256 257 256 254 252 253 255 256 258 261 266 268 267 266 263 254 245 244 248 252 257 262 267 269 270 269 270 270 270 269 271 273 276 279 283 287 292 297 299 301 302 302 304 306 306 307 309 309 307 304 303 305 308 311 314 315 317 319 321 321 320 319 318 317 315 314 314 315 315 315 317
233 235 236 237 238 239 242 245 247 249 251 254 257 258 258 258 257 256 256 257 258 259 259 261 265 269 270 269 266 258 251 248 250 254 259 263 266 268 269 269 271 272 272 272 274 274 275 278 280 284 288 292 294 296 297 297 298 300 302 304 305 305 305 305 305 305 306 308 311 313 315 318 323 325 325 323 322 318 315 314 314 314 314 316 318
237 239 241 242 243 246 248 250 251 254 256 257 258 258 258 257 257 257 258 260 260 261 261 263 265 267 269 270 268 265 260 257 256 258 260 263 265 268 269 270 272 273 273 275 277 277 278 279 281 283 286 289 291 293 294 295 296 297 297 299 300 301 303 306 307 305 302 303 307 309 311 317 323 326 327 327 325 319 314 316 317 314 314 317 318
241 243 245 247 249 251 254 256 258 259 258 258 258 259 259 260 260 260 260 260 260 261 263 265 266 267 269 270 270 269 266 263 261 261 262 264 266 269 271 272 274 275 276 278 279 281 281 282 283 285 287 289 290 291 292 293 295 295 295 297 297 298 301 305 305 302 298 300 305 307 308 314 321 326 327 328 328 325 322 324 324 321 316 316 317
251 251 252 253 255 258 260 262 263 264 263 262 262 262 263 263 264 264 263 264 264 264 265 267 268 269 271 272 272 271 269 268 266 265 265 267 269 271 273 275 276 277 278 279 280 282 283 284 285 287 289 290 291 291 292 292 293 294 294 295 296 297 299 302 302 299 298 302 309 308 305 310 319 325 327 328 329 330 330 331 331 330 325 319 317
262 260 259 260 260 261 262 264 264 264 266 268 268 268 268 269 269 269 269 270 269 268 268 270 271 272 274 275 274 273 272 271 270 269 269 270 272 274 276 277 278 279 280 281 281 282 283 285 286 288 290 292 292 293 293 293 293 293 293 294 294 295 297 299 300 298 296 303 313 310 304 308 318 323 324 327 329 330 331 333 334 334 332 327 328
272 268 266 265 265 265 266 267 268 269 272 273 272 271 272 274 273 273 272 272 272 272 273 274 275 276 277 277 277 276 275 274 273 273 273 274 275 277 277 278 279 280 281 282 282 282 283 285 288 290 292 293 293 293 294 294 293 294 294 294 295 295 295 296 297 295 292 301 311 308 305 311 319 321 321 325 329 331 332 335 336 336 336 337 340
279 277 274 273 272 273 273 273 273 273 273 273 273 273 275 276 276 276 275 275 275 275 276 276 277 277 278 278 277 277 276 276 275 276 277 277 277 278 279 279 280 282 282 283 283 283 283 285 289 291 292 292 292 293 293 294 293 294 295 296 296 296 295 295 295 293 290 297 306 306 307 314 320 321 320 324 330 334 337 338 339 339 342 343 345
300 296 290 284 283 283 282 280 279 278 277 276 275 276 277 278 279 279 279 279 279 278 279 280 280 279 278 278 277 277 277 277 277 278 278 278 279 279 280 280 281 282 283 283 283 284 286 288 290 291 292 292 293 294 294 294 294 295 295 296 297 297 297 298 299 296 288 287 299 305 309 315 320 320 322 326 332 336 339 340 340 342 346 349 351